Skip Page Navigation
NASA JPL Caltech
NASA Logo - Jet Propulsion Laboratory + View the NASA Portal
+ Center for Near-Earth Object Studies
JPL Home Earth Solar System Stars & Galaxies Technology
JPL Solar System Dynamics
BODIES ORBITS EPHEMERIDES TOOLS PHYSICAL DATA DISCOVERY FAQ SITE MAP
JPL Small-Body Database Browser
Search: [ help ]  
10838 Lebon (1994 EH7)
Classification: Main-belt Asteroid          SPK-ID: 2010838
Ephemeris | Orbit Diagram | Orbital Elements | Mission Design | Physical Parameters | Discovery Circumstances ]

[ show orbit diagram ]
Orbital Elements at Epoch 2459200.5 (2020-Dec-17.0) TDB
Reference: JPL 36 (heliocentric ecliptic J2000)
 Element Value Uncertainty (1-sigma)   Units 
e .1647773803680801 2.498e-08  
a 2.641159347992534 1.0076e-08 au
q 2.205956029495658 6.9073e-08 au
i 12.83276518731399 6.1842e-07 deg
node 10.0866173112873 3.6188e-06 deg
peri 277.3005012624677 4.3388e-06 deg
M 341.6845821558505 6.1416e-06 deg
tp 2459280.263584639572
(2021-Mar-06.76358464)
2.6952e-05 TDB
period 1567.798819256452
4.29
8.9716e-06
2.456e-08
d
yr
n .2296212980761999 1.314e-09 deg/d
Q 3.076362666489411 1.1736e-08 au
  Orbit Determination Parameters
   # obs. used (total)      2424  
   data-arc span      11097 days (30.38 yr)  
   first obs. used      1990-04-01  
   last obs. used      2020-08-18  
   planetary ephem.      DE441  
   SB-pert. ephem.      SB441-N16  
   condition code      0  
   norm. resid. RMS      .45412  
   source      ORB  
   producer      Otto Matic  
   solution date      2021-Apr-12 22:22:24  

Additional Information
 Earth MOID = 1.23303 au 
 Jupiter MOID = 2.24451 au 
 T_jup = 3.340 
[ show covariance matrix ]

Ephemeris | Orbit Diagram | Orbital Elements | Mission Design | Physical Parameters | Discovery Circumstances ]

Physical Parameter Table
Parameter Symbol Value Units Sigma Reference Notes
absolute magnitude H 13.26   n/a MPCxxxxx  
diameter diameter 6.413 km 0.142 urn:nasa:pds:neowise_diameters_albedos::2.0[mainbelt] (http://adsabs.harvard.edu/abs/2011ApJ...741...68M)  
geometric albedo albedo 0.225   0.027 urn:nasa:pds:neowise_diameters_albedos::2.0[mainbelt] (http://adsabs.harvard.edu/abs/2011ApJ...741...68M)  

10838 Lebon           Discovered 1994 Mar. 9 by E. W. Elst at Caussols.
Gustave Le Bon (1841-1931) was a French social psychologist who became famous through his book La psychologie des foules (1895): "Crowd behavior is unanimous, emotional and intellectually weak". Freud's Massa und Ich-analyse (1920) owes much to his ideas.
NOTE: some special characters may not display properly (any characters within {} are an attempt to place the proper accent above a character)
Reference: 20000523/MPCPages.arcLast Updated: 2013-03-29

Alternate Designations
 1994 EH7 = 1991 RJ23 
Ephemeris | Orbit Diagram | Orbital Elements | Mission Design | Physical Parameters | Discovery Circumstances ]
ABOUT SSD CREDITS/AWARDS PRIVACY/COPYRIGHT GLOSSARY LINKS
FirstGov 2021-Jun-23 22:15 UT
(server date/time)  
NASA Home Page
Site Manager:   Ryan S. Park
Webmaster  Alan B. Chamberlin